Temp
19 19 20 19 23 24 23 23 23 23 23 20 20 21 22 20 22 21 15 16 15 15 14 15 15 15 15 15 14 14 14 15 15 16 15 15 15 15 15 15 15 15 15 15 15 15 15 15 15
19 19 19 20 24 24 24 23 23 23 20 19 19 19 20 20 17 15 15 15 14 15 14 13 15 15 15 15 14 14 14 15 15 15 16 16 16 15 15 15 15 15 15 15 15 15 15 15 15
19 19 21 23 24 24 24 22 23 20 19 20 20 18 19 18 15 16 15 15 14 14 14 14 15 15 15 15 14 14 14 15 15 15 15 15 15 15 15 15 15 15 15 15 15 15 14 14 14
19 19 19 24 24 22 23 23 22 20 19 18 19 21 16 15 15 15 14 14 14 14 13 15 15 15 14 15 14 14 14 14 15 15 15 15 15 15 15 15 15 15 15 15 14 15 14 14 14
19 19 23 23 23 22 22 21 21 22 21 20 19 20 18 15 15 15 15 14 14 13 13 15 15 14 14 14 14 14 14 14 14 15 14 14 14 14 14 14 14 14 14 14 14 14 14 14 14
20 20 23 23 23 22 21 20 21 22 21 19 19 20 18 15 15 14 15 14 15 15 15 15 15 14 14 15 15 14 14 14 14 14 14 14 14 14 14 14 14 14 14 14 14 14 14 14 13
21 22 23 23 23 22 22 19 21 22 21 21 19 22 17 15 14 15 14 13 14 14 15 15 15 14 14 14 14 14 14 14 14 14 14 14 14 14 14 14 14 13 13 13 13 14 14 13 13
19 22 21 22 22 23 21 19 19 21 21 18 18 22 19 15 15 14 14 13 13 13 13 13 12 13 13 13 14 14 14 14 13 13 13 13 13 13 13 13 13 13 13 13 13 13 13 13 13
18 22 23 22 21 23 18 21 18 18 19 18 18 18 17 15 16 14 13 13 13 13 12 13 13 13 13 13 13 13 13 13 13 13 13 13 12 12 12 13 13 13 13 13 13 13 13 13 13
20 22 22 22 23 23 20 21 20 20 20 19 18 18 17 16 16 15 14 14 13 13 14 12 13 13 14 13 13 13 13 12 12 12 12 12 12 12 12 12 12 12 12 12 12 12 12 12 11
18 22 21 20 20 19 20 19 19 21 20 21 20 17 18 16 15 15 15 15 14 14 13 14 13 13 12 13 12 13 12 13 13 13 13 13 12 12 11 11 11 10 11 11 11 12 12 12 12
19 18 19 19 17 18 19 19 20 20 20 19 19 18 17 17 16 16 15 15 14 14 14 14 13 13 13 12 13 13 13 13 13 13 13 12 11 12 11 10 11 10 11 11 11 11 12 12 12
18 19 17 17 17 17 17 19 20 19 17 18 19 18 16 15 14 14 14 15 15 14 14 14 14 13 13 13 13 13 13 13 13 12 12 12 11 11 11 11 10 11 11 11 10 11 12 12 12
19 17 17 16 17 17 19 18 17 17 17 17 17 17 16 16 15 14 14 13 14 15 14 14 14 13 13 13 13 13 13 12 12 12 11 11 11 11 11 11 11 11 11 11 11 11 12 12 12
16 18 17 17 17 18 18 18 19 15 16 16 16 16 15 15 14 14 14 14 14 14 14 14 14 14 13 13 13 13 13 12 12 12 12 12 11 11 11 11 11 11 11 11 11 12 12 12 12
18 19 19 18 17 16 17 22 17 14 16 16 15 15 16 16 16 15 14 15 15 14 15 14 14 14 13 13 12 12 12 12 12 12 12 12 11 11 11 11 11 11 11 11 11 11 11 11 12
17 20 19 17 16 17 18 21 16 13 15 15 15 14 15 15 16 16 16 16 16 15 15 14 14 14 13 13 13 12 12 12 12 11 11 11 11 11 11 11 11 11 11 11 11 11 11 11 11
18 18 18 20 17 16 18 20 15 12 14 14 14 14 13 14 14 16 16 16 15 15 15 15 14 14 13 13 13 12 12 12 12 11 11 11 11 11 11 11 11 11 11 11 11 11 11 11 11
20 20 20 17 15 17 18 19 17 13 13 14 13 13 12 12 14 15 15 16 16 15 15 15 14 14 13 13 13 13 12 12 12 12 11 11 11 11 10 10 10 10 10 10 10 10 11 11 11
17 19 18 15 14 16 16 18 16 13 11 10 10 11 10 10 11 13 15 15 16 15 15 15 15 14 14 13 13 13 12 12 12 11 11 11 10 10 10 10 10 10 10 10 10 10 10 10 10
17 19 17 18 14 15 16 19 15 12 10 9 8 7 7 7 10 12 13 14 15 15 15 14 14 14 13 13 13 13 12 12 12 11 11 10 10 10 9 9 9 9 9 9 9 9 9 9 10
17 16 17 15 17 18 15 20 18 15 13 11 9 8 7 6 8 10 12 13 14 15 15 14 13 14 13 13 13 13 12 11 11 11 10 10 10 9 9 9 9 9 9 9 9 9 9 9 9
17 15 15 15 15 16 16 17 21 13 14 13 10 8 6 6 7 9 11 11 12 13 14 14 13 13 13 13 12 12 11 11 11 11 11 10 11 10 10 9 9 8 8 8 8 8 8 8 8
12 14 14 13 15 15 19 18 21 17 17 15 9 7 6 5 6 7 8 8 9 11 12 13 13 13 12 12 12 11 11 11 11 11 10 11 11 10 10 9 8 8 7 7 8 8 8 8 8
14 17 13 13 13 15 11 15 20 15 13 13 9 7 5 5 5 5 7 8 8 9 9 9 10 11 10 11 11 11 11 11 11 10 10 10 10 10 9 9 9 8 8 8 8 8 7 7 7
15 18 15 14 13 16 10 15 19 9 7 9 7 6 4 4 4 5 6 7 8 8 8 9 9 10 10 10 10 10 10 10 10 10 10 10 10 9 9 9 9 8 8 8 8 8 8 7 7
13 13 15 13 10 14 15 14 11 7 6 6 5 5 4 3 3 5 6 7 7 7 8 8 8 9 8 9 9 9 9 9 9 9 9 9 9 8 8 8 8 8 8 8 8 8 8 7 7
13 14 14 14 13 15 13 14 18 7 7 6 5 5 3 2 2 4 5 6 6 7 7 7 8 8 8 8 8 8 8 8 8 8 8 8 8 8 8 8 8 8 8 8 8 8 8 7 7
12 13 14 16 15 16 18 17 15 12 8 6 5 4 3 2 2 3 4 5 6 6 6 6 7 7 7 7 7 7 8 8 8 8 8 8 8 8 8 8 8 8 8 7 7 7 7 6 6
14 15 16 16 13 13 15 19 9 8 9 7 5 3 3 2 2 2 3 4 4 5 5 5 6 6 6 7 7 7 7 7 7 7 7 7 7 7 7 7 7 7 6 6 6 5 5 5 4
Height
1524 1525 1526 1527 1528 1519 1525 1527 1525 1527 1529 1534 1535 1534 1534 1536 1535 1540 1544 1546 1549 1551 1554 1555 1557 1558 1559 1560 1560 1561 1561 1562 1562 1562 1563 1563 1563 1563 1563 1563 1562 1562 1562 1562 1562 1562 1562 1561 1561
1524 1525 1527 1526 1522 1522 1522 1524 1526 1528 1533 1535 1536 1537 1537 1538 1541 1542 1546 1548 1550 1552 1554 1557 1557 1559 1560 1561 1562 1563 1563 1563 1563 1564 1564 1565 1565 1565 1565 1564 1565 1565 1565 1565 1565 1565 1564 1564 1563
1524 1525 1527 1522 1520 1519 1522 1525 1526 1532 1535 1536 1537 1539 1540 1542 1543 1545 1546 1548 1551 1553 1555 1556 1558 1560 1561 1563 1564 1564 1565 1565 1565 1566 1566 1566 1567 1567 1567 1567 1567 1567 1567 1567 1567 1566 1566 1566 1565
1524 1526 1527 1520 1520 1524 1523 1524 1528 1532 1535 1536 1537 1538 1542 1542 1545 1546 1546 1549 1552 1554 1556 1557 1559 1560 1562 1563 1564 1565 1566 1566 1567 1567 1568 1568 1569 1569 1569 1569 1568 1569 1569 1569 1568 1568 1568 1568 1567
1524 1523 1520 1522 1522 1524 1526 1528 1530 1530 1532 1535 1537 1538 1541 1542 1543 1545 1548 1550 1552 1554 1557 1558 1560 1561 1563 1564 1565 1566 1567 1568 1568 1569 1569 1569 1569 1570 1570 1570 1570 1570 1570 1570 1570 1570 1570 1569 1568
1523 1522 1519 1520 1519 1522 1526 1528 1529 1530 1533 1535 1537 1537 1542 1542 1544 1546 1548 1551 1553 1555 1557 1559 1560 1562 1564 1565 1566 1567 1568 1569 1569 1570 1570 1570 1571 1571 1571 1571 1571 1571 1571 1571 1571 1571 1570 1570 1569
1519 1517 1515 1517 1518 1520 1522 1528 1528 1529 1532 1534 1535 1535 1541 1543 1544 1546 1550 1552 1553 1555 1557 1559 1560 1562 1564 1565 1567 1568 1569 1570 1570 1571 1571 1571 1572 1572 1572 1572 1572 1572 1572 1572 1572 1571 1571 1571 1570
1519 1517 1520 1518 1519 1519 1523 1527 1528 1529 1531 1532 1535 1533 1538 1542 1542 1546 1549 1552 1554 1555 1557 1559 1561 1562 1564 1565 1567 1568 1569 1570 1571 1571 1572 1572 1572 1573 1573 1573 1573 1573 1573 1573 1572 1572 1572 1572 1572
1517 1516 1514 1516 1519 1516 1523 1525 1528 1529 1531 1533 1534 1535 1536 1538 1541 1545 1548 1551 1553 1555 1557 1559 1560 1562 1564 1566 1567 1568 1569 1570 1571 1572 1572 1573 1573 1573 1573 1573 1573 1573 1573 1573 1573 1573 1572 1572 1572
1515 1512 1510 1511 1512 1514 1520 1522 1525 1529 1530 1532 1533 1533 1535 1536 1539 1542 1545 1547 1550 1553 1555 1558 1560 1562 1564 1565 1567 1569 1569 1571 1571 1572 1572 1573 1573 1573 1574 1573 1573 1573 1573 1573 1573 1573 1573 1573 1572
1513 1508 1510 1512 1514 1516 1519 1523 1524 1525 1528 1527 1529 1532 1533 1535 1538 1541 1543 1546 1549 1552 1554 1556 1559 1561 1563 1565 1567 1568 1569 1570 1571 1572 1572 1573 1573 1573 1574 1574 1574 1574 1573 1574 1573 1573 1573 1573 1573
1512 1511 1511 1512 1514 1516 1519 1521 1523 1524 1525 1526 1528 1530 1531 1533 1535 1538 1542 1545 1548 1551 1553 1556 1558 1560 1563 1564 1566 1567 1569 1570 1571 1571 1572 1572 1573 1573 1574 1575 1574 1574 1574 1573 1573 1573 1572 1572 1572
1510 1510 1512 1513 1514 1516 1518 1520 1520 1523 1524 1525 1526 1528 1530 1533 1536 1539 1542 1544 1547 1549 1552 1554 1557 1559 1561 1563 1565 1566 1568 1569 1570 1571 1571 1572 1572 1573 1573 1573 1573 1573 1573 1573 1573 1572 1571 1571 1570
1506 1510 1513 1515 1515 1516 1518 1520 1521 1522 1521 1522 1525 1526 1529 1532 1535 1538 1540 1542 1544 1547 1550 1552 1555 1557 1559 1562 1564 1565 1566 1568 1569 1570 1570 1571 1572 1572 1573 1573 1573 1573 1573 1572 1572 1571 1570 1570 1569
1508 1510 1513 1514 1515 1516 1518 1520 1518 1520 1519 1521 1523 1524 1526 1528 1532 1535 1538 1542 1543 1546 1549 1551 1553 1556 1558 1560 1562 1564 1565 1566 1567 1568 1569 1570 1570 1571 1572 1572 1572 1571 1571 1571 1571 1570 1569 1568 1567
1507 1508 1511 1509 1514 1515 1517 1508 1517 1518 1519 1520 1521 1522 1523 1525 1528 1532 1535 1538 1541 1544 1546 1549 1551 1553 1555 1558 1560 1562 1563 1565 1566 1567 1568 1569 1569 1570 1570 1570 1570 1570 1570 1570 1569 1569 1568 1567 1566
1506 1501 1506 1510 1512 1513 1514 1507 1515 1518 1518 1519 1520 1520 1521 1523 1525 1528 1531 1535 1538 1541 1543 1546 1548 1550 1553 1555 1558 1560 1562 1563 1564 1566 1567 1568 1568 1569 1569 1569 1569 1569 1568 1568 1567 1567 1566 1565 1564
1498 1501 1503 1499 1509 1512 1511 1507 1515 1518 1518 1518 1519 1519 1520 1521 1522 1524 1527 1529 1533 1537 1540 1543 1546 1548 1551 1553 1555 1557 1559 1560 1562 1564 1565 1566 1567 1568 1568 1568 1567 1567 1567 1566 1566 1565 1565 1564 1562
1487 1489 1493 1503 1508 1508 1506 1504 1510 1517 1517 1517 1518 1518 1518 1519 1519 1520 1522 1525 1528 1532 1536 1539 1542 1545 1548 1550 1552 1555 1557 1558 1560 1561 1563 1564 1565 1565 1566 1566 1565 1565 1565 1564 1564 1563 1563 1562 1560
1492 1492 1498 1507 1510 1509 1509 1505 1511 1515 1517 1517 1517 1517 1517 1516 1517 1517 1519 1521 1523 1527 1531 1535 1539 1542 1546 1548 1551 1554 1556 1557 1558 1559 1560 1561 1562 1563 1564 1564 1564 1563 1563 1562 1562 1561 1560 1560 1559
1492 1489 1496 1495 1508 1511 1509 1503 1508 1514 1516 1516 1516 1515 1515 1514 1514 1515 1516 1517 1519 1522 1526 1530 1535 1539 1543 1546 1549 1552 1554 1556 1557 1558 1559 1560 1561 1561 1562 1562 1562 1561 1560 1560 1559 1558 1558 1557 1556
1491 1493 1494 1503 1500 1503 1510 1498 1496 1503 1509 1513 1514 1514 1514 1513 1513 1513 1513 1513 1514 1517 1521 1526 1531 1535 1539 1543 1546 1549 1552 1554 1555 1557 1558 1559 1559 1560 1560 1559 1559 1558 1557 1557 1556 1555 1555 1554 1553
1487 1493 1498 1503 1506 1504 1508 1506 1480 1505 1503 1504 1510 1512 1513 1512 1511 1511 1511 1511 1512 1514 1517 1521 1526 1531 1536 1540 1544 1547 1549 1552 1554 1555 1557 1558 1558 1558 1558 1558 1556 1554 1553 1553 1552 1551 1550 1550 1549
1492 1495 1503 1509 1509 1515 1492 1495 1476 1490 1486 1494 1507 1510 1512 1512 1512 1511 1510 1510 1511 1513 1516 1519 1523 1527 1531 1536 1540 1543 1546 1549 1551 1553 1554 1555 1556 1556 1556 1555 1553 1551 1550 1549 1548 1548 1546 1546 1545
1485 1485 1514 1520 1522 1505 1516 1506 1474 1486 1492 1494 1502 1508 1510 1512 1512 1512 1512 1512 1512 1514 1517 1519 1523 1526 1529 1533 1537 1541 1544 1547 1549 1550 1552 1552 1553 1553 1553 1552 1550 1549 1547 1546 1545 1544 1542 1542 1540
1478 1469 1487 1502 1509 1494 1519 1498 1469 1495 1497 1497 1504 1507 1510 1512 1512 1512 1513 1514 1514 1515 1517 1520 1523 1526 1529 1533 1535 1538 1541 1544 1546 1547 1549 1549 1550 1550 1549 1548 1547 1546 1545 1543 1541 1540 1538 1537 1536
1478 1482 1476 1491 1511 1501 1493 1490 1488 1496 1499 1501 1503 1507 1510 1512 1513 1513 1514 1515 1516 1517 1518 1520 1523 1525 1528 1531 1534 1537 1539 1542 1544 1545 1546 1546 1547 1547 1546 1545 1544 1543 1541 1540 1538 1536 1534 1532 1530
1464 1468 1482 1482 1497 1491 1493 1491 1464 1488 1490 1497 1501 1503 1508 1511 1512 1513 1515 1516 1518 1519 1520 1522 1523 1526 1528 1531 1533 1535 1537 1540 1542 1543 1544 1544 1545 1544 1544 1543 1542 1540 1539 1537 1534 1531 1530 1527 1525
1468 1465 1466 1462 1469 1468 1469 1466 1458 1465 1475 1483 1494 1500 1504 1508 1512 1513 1515 1517 1519 1521 1522 1523 1525 1526 1528 1530 1532 1535 1536 1537 1539 1541 1543 1542 1542 1542 1541 1540 1538 1536 1534 1532 1529 1527 1524 1521 1519
1450 1448 1448 1454 1475 1474 1468 1452 1466 1468 1471 1482 1491 1497 1502 1505 1508 1511 1515 1517 1519 1520 1523 1525 1526 1527 1530 1531 1534 1534 1537 1538 1538 1538 1539 1540 1540 1539 1538 1537 1535 1533 1530 1527 1524 1521 1518 1515 1513
Wind_Speed
5 4 4 1 4 4 4 4 1 5 5 3 5 0 3 6 4 3 11 14 15 15 14 13 12 11 11 11 11 11 10 10 11 13 14 14 15 13 14 15 16 17 17 17 17 18 18 17 17
7 6 3 2 4 5 5 3 5 5 4 7 6 3 2 4 5 11 14 16 16 14 13 12 12 11 11 11 10 11 9 10 11 12 13 13 13 13 14 14 15 15 16 16 16 16 16 16 16
8 7 3 2 2 3 3 4 6 6 8 4 4 2 2 4 7 14 10 19 16 13 13 13 12 11 11 11 10 10 10 10 10 11 11 12 12 12 12 12 13 13 14 14 14 14 14 14 14
7 4 1 5 4 3 3 6 8 11 4 2 2 5 4 5 12 7 17 19 16 14 12 13 12 12 11 11 10 10 10 9 9 10 10 10 10 10 10 11 11 11 11 11 12 11 11 11 11
7 3 4 3 4 3 2 4 9 9 5 5 5 4 4 7 12 14 18 16 15 14 12 12 11 10 11 11 10 9 10 9 8 9 8 8 8 9 9 9 9 8 8 8 8 8 8 9 9
4 2 6 7 6 5 4 10 10 5 5 6 5 8 6 11 15 19 17 16 13 14 13 13 13 12 11 11 10 9 10 8 8 7 7 6 6 7 7 7 7 6 5 5 5 6 7 7 7
3 3 4 4 7 6 6 12 8 8 7 6 4 6 7 12 16 19 18 16 13 13 15 15 14 13 12 12 11 10 9 8 7 6 5 5 5 5 5 4 4 3 2 2 3 4 5 6 6
4 2 5 4 8 6 9 12 5 8 7 6 5 4 6 17 20 21 20 17 14 13 13 14 13 13 13 12 11 10 9 8 7 5 4 4 4 3 2 1 1 1 1 1 1 2 3 4 5
7 4 8 8 8 6 11 10 5 4 5 5 7 2 6 22 22 22 21 19 17 14 14 15 15 13 13 12 12 12 10 8 7 6 5 3 2 2 3 2 2 2 2 1 1 2 2 3 3
6 6 9 4 6 6 14 11 11 7 8 6 7 8 9 23 23 26 26 25 22 18 16 15 17 15 15 13 12 11 10 7 7 5 4 3 3 3 3 2 3 2 2 2 2 3 3 4 4
5 6 6 7 7 6 13 9 9 8 7 10 13 14 14 24 24 25 24 22 21 19 17 16 17 16 14 13 12 11 9 8 7 5 3 3 2 2 3 2 1 0 2 2 4 5 4 4 4
5 4 7 8 7 8 11 10 7 9 2 4 8 13 17 22 24 25 23 21 20 19 16 15 18 17 15 13 12 11 10 9 7 6 5 5 2 3 3 3 1 1 3 5 5 4 5 5 5
4 6 6 6 9 6 9 6 4 5 4 7 5 13 17 18 18 18 18 18 17 16 16 15 17 17 16 14 14 12 11 10 9 7 6 6 4 3 3 1 0 1 2 3 4 4 5 6 7
10 7 6 6 8 5 7 4 4 3 1 7 10 10 15 17 18 18 19 18 18 15 15 14 15 16 16 14 13 12 11 10 8 8 7 6 5 4 4 3 1 2 3 4 5 7 7 8 8
7 7 3 7 8 4 6 3 5 2 4 5 10 9 12 16 17 18 18 17 16 16 16 15 14 14 14 13 12 11 11 9 8 7 7 6 6 5 4 5 4 5 5 6 7 8 8 9 9
7 4 7 7 8 4 7 8 7 2 3 7 6 9 12 15 17 17 17 18 18 16 17 16 14 14 13 13 12 11 9 9 9 8 6 5 5 4 3 5 6 7 7 8 9 9 10 10 10
6 11 13 5 10 5 10 5 10 2 5 6 6 5 8 13 17 17 18 19 19 18 17 18 16 15 14 13 13 12 10 10 9 8 7 6 5 5 3 4 6 7 8 9 9 10 10 11 12
14 8 8 10 9 7 10 5 9 3 3 4 3 3 4 7 13 19 21 22 22 21 20 19 18 17 16 15 14 13 11 11 9 8 8 8 6 5 5 5 6 7 8 10 11 11 12 12 13
10 13 11 3 6 8 13 8 10 1 2 2 1 1 2 6 11 14 19 22 24 24 24 22 22 20 20 19 17 15 11 10 9 8 8 7 6 6 6 7 7 8 9 10 11 12 13 14 14
9 12 7 4 4 3 5 11 5 2 2 1 1 1 1 4 8 11 14 18 23 27 26 25 23 22 22 20 17 14 11 9 9 8 7 7 6 6 7 7 8 9 10 10 11 12 14 15 14
7 12 10 4 7 2 3 7 7 4 5 3 2 1 1 2 6 9 11 14 19 25 28 27 25 24 23 22 19 16 12 9 8 8 6 5 5 5 6 7 9 10 11 12 12 13 14 15 17
14 6 9 12 11 5 3 6 7 9 8 6 4 3 2 3 3 6 9 13 17 22 26 28 27 26 25 23 20 18 14 10 10 8 5 2 1 5 7 9 11 11 13 13 14 15 15 17 17
6 10 9 6 4 2 6 4 6 5 11 12 10 6 4 4 6 5 7 9 13 17 23 26 27 26 25 23 22 20 16 13 10 8 7 6 8 7 10 13 17 20 14 14 15 17 19 20 21
19 12 9 5 2 3 11 9 8 8 8 15 13 10 7 6 7 8 9 10 11 13 17 22 25 27 25 24 23 20 19 17 14 12 10 9 10 13 14 18 21 16 16 18 20 21 22 23 25
7 17 4 4 4 6 3 7 11 6 3 9 17 14 11 9 10 11 14 15 15 15 16 17 18 21 20 20 20 19 18 17 15 13 11 10 12 15 17 19 17 17 18 20 22 23 25 25 26
18 16 6 8 6 7 3 8 4 2 2 10 16 15 13 11 11 14 16 18 20 20 20 19 19 20 18 17 17 17 16 15 12 10 9 9 14 15 13 12 12 14 16 18 20 22 24 25 26
9 9 3 7 2 3 6 6 4 6 7 14 17 16 14 13 13 16 18 19 20 21 22 21 21 20 19 17 16 14 13 11 8 7 6 6 7 7 8 10 11 13 15 17 18 20 21 23 25
6 13 5 3 9 6 6 5 6 12 16 15 17 20 17 15 16 17 18 19 20 20 21 21 20 20 19 17 16 14 12 9 6 4 1 2 5 8 11 13 15 16 18 20 21 22 23 25 25
5 7 4 4 4 8 7 6 4 12 19 21 23 23 22 20 18 19 21 22 22 22 22 22 21 20 19 17 15 12 10 7 4 3 5 6 8 10 12 15 17 19 21 23 24 25 26 27 27
7 11 18 8 7 2 1 5 2 2 16 26 26 25 23 23 22 21 22 22 22 22 21 20 19 18 16 14 12 9 7 5 3 2 3 5 8 11 14 16 18 20 21 23 24 25 26 26 27
Wind_Direction
169 166 160 135 230 239 141 128 87 142 154 79 112 146 25 27 4 40 146 153 155 157 156 151 154 154 149 141 133 120 112 110 109 109 111 107 108 109 102 98 99 101 101 100 93 88 85 81 77
162 157 149 224 252 210 133 124 165 112 96 119 106 121 138 77 64 126 140 154 154 153 155 158 157 157 151 147 135 129 125 118 114 112 108 104 102 101 100 99 97 96 98 93 88 84 80 75 70
158 156 203 224 245 192 125 157 129 121 125 131 130 72 84 91 106 138 151 155 153 156 156 163 158 156 153 152 145 139 131 122 114 112 108 107 105 104 103 102 103 102 97 92 86 81 75 71 68
159 144 106 241 174 89 71 137 141 144 177 167 135 119 92 131 147 142 148 152 152 154 154 160 161 159 159 158 155 143 140 133 118 117 112 107 107 108 110 110 107 103 101 97 90 79 72 69 65
174 193 195 197 149 124 145 145 162 159 153 168 171 131 115 143 156 151 151 152 157 159 154 161 162 163 160 160 161 156 149 141 131 126 118 113 114 116 117 118 116 111 104 95 85 75 69 66 64
187 210 201 193 166 146 154 166 161 175 161 156 173 147 129 154 153 154 155 154 153 168 164 162 166 169 164 162 163 162 154 147 144 140 132 124 121 123 122 124 127 127 121 104 79 65 59 58 60
225 207 191 168 164 167 152 162 187 182 171 180 168 163 137 157 161 160 158 158 157 160 168 168 174 171 169 167 166 167 166 161 157 156 145 136 132 133 133 132 134 137 128 89 62 55 53 54 56
183 219 165 186 186 170 154 170 181 182 160 164 171 174 162 175 166 163 165 165 161 161 168 169 168 169 169 173 171 174 174 169 166 169 151 140 144 153 161 172 181 209 235 290 354 26 40 41 47
165 203 207 182 176 161 160 182 160 180 146 167 186 131 144 171 169 168 171 172 173 171 172 179 181 178 175 177 182 180 180 180 179 181 180 175 166 182 173 194 210 218 224 241 302 353 8 14 13
207 214 204 185 179 171 172 187 162 171 173 190 184 188 164 175 179 181 184 184 185 185 182 182 185 185 185 185 185 183 186 185 185 188 191 202 204 199 190 213 208 211 227 258 280 307 326 354 355
191 220 174 191 181 161 169 184 171 175 193 204 202 186 182 180 187 191 193 195 192 191 189 189 186 188 188 189 189 191 191 197 203 212 216 216 197 177 167 164 172 160 275 303 302 304 302 305 310
209 208 176 157 171 154 165 157 182 204 123 167 210 189 187 187 193 195 196 195 194 195 195 193 191 190 191 194 195 199 202 206 210 219 211 189 172 158 145 140 206 270 298 313 309 308 295 292 291
223 181 171 156 161 147 142 149 169 196 239 221 193 190 190 194 192 195 198 197 197 198 195 193 192 192 197 198 200 201 204 205 214 217 206 193 189 181 212 213 267 270 317 331 327 321 315 301 289
184 158 161 166 165 156 165 152 181 182 264 221 201 193 194 197 193 190 193 195 200 197 197 197 194 196 199 201 201 202 206 210 211 209 196 205 205 202 218 230 255 300 318 321 313 310 307 304 301
139 133 156 177 179 160 158 182 215 327 276 198 193 190 196 198 196 199 200 197 200 201 198 202 199 196 196 197 196 199 203 203 201 199 202 202 207 216 225 244 263 276 298 312 315 315 312 309 304
158 177 188 170 172 174 198 202 166 15 161 167 158 187 197 199 203 204 203 203 203 204 204 202 202 199 194 195 196 200 198 196 196 195 192 192 193 204 236 257 265 274 291 306 308 309 312 310 307
194 197 208 173 203 160 212 170 156 72 158 147 169 172 185 198 203 207 210 209 209 207 207 207 205 201 195 193 195 198 198 197 198 200 203 208 214 228 260 287 284 286 291 296 298 302 305 309 311
182 193 199 201 180 200 196 192 154 100 137 149 151 171 178 178 193 205 207 208 207 207 208 209 208 203 197 197 197 199 201 202 205 209 213 220 234 247 270 288 287 289 291 292 295 300 305 306 309
191 203 195 162 156 188 207 199 178 137 135 128 112 164 179 184 196 202 208 212 211 207 206 207 205 203 201 200 199 201 202 200 201 203 208 220 233 242 259 279 289 292 293 293 296 298 301 305 308
176 186 173 107 121 223 202 224 191 161 128 90 12 345 304 213 213 210 207 208 208 209 206 205 205 204 204 205 203 200 191 188 190 193 200 214 229 246 265 280 288 294 297 296 296 299 302 301 304
194 202 181 167 141 100 173 241 202 179 163 141 96 91 33 219 215 214 211 208 204 204 205 204 204 204 205 206 205 201 195 188 187 185 184 199 229 252 269 283 289 289 289 290 293 295 295 295 298
203 195 153 144 165 205 226 229 213 191 193 195 171 153 110 101 159 194 200 202 201 200 201 201 202 203 205 206 207 207 207 197 188 183 189 212 264 285 291 295 296 294 285 283 284 287 288 289 290
186 142 130 144 135 184 184 239 146 169 214 204 181 164 140 126 135 149 174 181 186 189 193 195 197 200 204 206 209 211 211 212 206 205 224 251 285 295 289 287 289 289 285 282 279 280 282 283 285
138 115 76 65 87 248 216 224 212 189 215 178 169 163 148 127 120 121 130 145 159 168 177 186 193 195 197 201 205 208 213 217 222 228 235 252 273 283 283 289 290 298 289 287 282 280 282 286 286
177 154 129 172 192 234 338 219 240 158 142 194 168 161 152 138 125 121 123 128 137 147 156 170 180 186 190 193 198 204 209 217 227 231 236 250 268 271 276 288 298 302 301 300 299 297 291 287 285
181 184 164 182 186 205 147 224 223 65 86 149 157 153 149 141 134 130 126 126 130 137 144 150 155 157 162 172 184 188 197 209 215 216 233 251 264 278 288 302 311 313 312 309 305 302 301 298 291
173 208 97 104 78 173 185 257 214 149 141 153 154 155 153 144 138 137 134 133 132 134 137 141 145 148 152 157 160 166 175 180 194 216 244 262 275 299 317 324 325 323 320 317 314 312 308 303 299
203 146 154 185 166 218 197 260 241 198 183 175 170 166 158 151 145 141 139 138 136 137 137 140 143 144 145 148 150 151 151 151 151 153 182 334 342 343 341 337 333 330 327 323 319 315 310 305 301
148 185 200 195 203 207 217 225 198 200 189 180 175 169 162 157 150 146 142 140 138 137 138 138 138 139 138 138 134 130 129 126 112 59 16 359 348 340 335 333 332 330 328 324 321 317 313 309 304
230 210 190 198 185 212 254 218 150 126 181 174 170 168 165 160 155 151 147 145 142 140 138 137 134 133 128 125 123 123 111 98 85 50 357 347 343 340 337 333 330 327 324 321 318 315 312 310 307